• MPC Preparation (Info)

  • MPEC 2014-X59 : 2014 XK6

    The following Minor Planet Electronic Circular may be linked-to from your own Web pages, but must not otherwise be redistributed electronically.

    A form allowing access to any MPEC is at the bottom of this page.


    Read MPEC 2014-X58 Read MPEC 2014-X60


    M.P.E.C. 2014-X59                                Issued 2014 Dec. 11, 14:08 UT
    
         The Minor Planet Electronic Circulars contain information on unusual
             minor planets and routine data on comets.  They are published
       on behalf of Commission 20 of the International Astronomical Union by the
              Minor Planet Center, Smithsonian Astrophysical Observatory,
                              Cambridge, MA 02138, U.S.A.
    
                 Prepared using the Tamkin Foundation Computer Network
    
                                  MPC@CFA.HARVARD.EDU
                URL https://www.minorplanetcenter.net/    ISSN 1523-6714
    
                                       2014 XK6
    
    Observations:
         K14X06K* C2014 12 08.21875 01 52 13.916+49 35 00.77         19.6 iLEX059F51
         K14X06K  C2014 12 08.23365 01 52 15.908+49 34 39.48         19.5 iLEX059F51
         K14X06K  C2014 12 08.24655 01 52 17.608+49 34 20.85         19.4 iLEX059F51
         K14X06K  C2014 12 08.25946 01 52 19.344+49 34 02.23         19.6 iLEX059F51
         K14X06K KC2014 12 08.84698 01 53 42.16 +49 19 40.7                qEX059J95
         K14X06K KC2014 12 08.86252 01 53 44.30 +49 19 18.4                qEX059J95
         K14X06K KC2014 12 08.86608 01 53 44.81 +49 19 13.3          19.5 RqEX059J95
         K14X06K KC2014 12 10.28406 01 56 58.34 +48 46 05.7                oEX059291
         K14X06K KC2014 12 10.28614 01 56 58.61 +48 46 02.9          19.7 RoEX059291
         K14X06K KC2014 12 11.41334 01 59 27.39 +48 20 37.6                oEX059291
         K14X06K KC2014 12 11.41544 01 59 27.66 +48 20 34.4                oEX059291
    
    Observer details:
    291 LPL/Spacewatch II.  Observer T. H. Bressi.  1.8-m f/2.7 reflector + CCD.
    F51 Pan-STARRS 1, Haleakala.  Observers B. Gibson, T. Goggia, N. Primak,
        A. Schultz, M. Willman.  Measurers K. Chambers, S. Chastel, L. Denneau,
        H. Flewelling, M. Huber, E. Magnier, E. Schunova, R. Wainscoat, C. Waters,
        R. Weryk.  1.8-m Ritchey-Chretien + CCD.
    J95 Great Shefford.  Observer P. Birtwhistle.  0.40-m f/6.0 Schmidt-Cassegrain
        + CCD.
    
    Orbital elements:
    2014 XK6                                                 Earth MOID = 0.1219 AU
    Epoch 2014 Dec. 9.0 TT = JDT 2457000.5                  MPC
    M  16.04079              (2000.0)            P               Q
    n   0.20688418     Peri.  322.43549     +0.85114047     +0.52429631
    a   2.8312911      Node     6.11461     -0.40287045     +0.68410944
    e   0.7507111      Incl.   14.09908     -0.33653425     +0.50705784
    P   4.76           H   19.2           G   0.15           U   8
    Residuals in seconds of arc
    141208 F51  0.0   0.0     141208 J95  0.5-  0.0     141210 291  0.1-  0.3+
    141208 F51  0.0   0.1+    141208 J95  0.2+  0.1-    141211 291  0.1+  0.1+
    141208 F51  0.2-  0.0     141208 J95  0.5+  0.0     141211 291  0.0   0.2-
    141208 F51  0.0   0.0     141210 291  0.2-  0.1+
    
    Ephemeris:
    2014 XK6                 a,e,i = 2.83, 0.75, 14                  q = 0.7058
    Date    TT    R. A. (2000) Decl.     Delta      r     Elong.  Phase     V
    2014 11 11    22 31 41.6 +66 56 48   0.1954  1.0857   114.4    56.1    17.9
    ...
    2014 11 26    01 13 28.8 +55 48 33   0.3598  1.2592   132.7    35.2    18.9
    ...
    2014 12 04    01 41 21.4 +51 25 55   0.4619  1.3518   134.9    31.1    19.5
    ...
    2014 12 10    01 56 20.8 +48 52 36   0.5441  1.4208   134.6    29.6    19.9
    2014 12 11    01 58 34.4 +48 29 54   0.5582  1.4322   134.4    29.4    20.0
    2014 12 12    02 00 44.6 +48 07 55   0.5725  1.4436   134.3    29.2    20.1
    ...
    2014 12 18    02 12 49.4 +46 09 39   0.6611  1.5116   132.5    28.7    20.5
    ...
    2014 12 26    02 27 24.2 +44 02 13   0.7867  1.6010   129.1    28.5    21.0
    ...
    2015 01 10    02 52 52.8 +41 11 44   1.0439  1.7639   120.9    28.6    21.8
    
    A. U. Tomatic                (C) Copyright 2014 MPC           M.P.E.C. 2014-X59
    

    Read MPEC 2014-X58 Read MPEC 2014-X60


    MPEC number:

    Enter an MPEC number in one of the following forms:

    • 1997-B01 (the full form)
    • J97B01 (the packed version of the full form)
    • B01 (the abbreviated form)